Location: ?????????
(54.7630°N, 39.4991°E)
Time: 07:56:42
(UTC+00:00)

SL-08 R/B - Pass Details

Date: 14 April 2026
Orbit: 949 x 1017 km, 82.9° (Epoch: 14 May)

Event Time Altitude Azimuth Distance (km) Brightness Sun altitude
Exits shadow 19:02:35 24° 182° (S) 1,859 5.5 -19.3°
Maximum altitude 19:06:27 80° 98° (E) 973 4.4 -19.6°
Drops below altitude 10° 19:12:35 10° 13° (NNE) 2,687 7.4 -20.1°
Sets 19:15:05 0° 12° (NNE) 3,637 8.2 -20.3°
